| time (UTC) | temp F | wind direction | speed MPH | gust MPH | rain 1hr in | rain 24hr in | rain mn in | humidity % | barometer mb |
| 20260504234511 | 52 | 255 | 13.0 | 22.0 | 0.00 | 0.00 | 0.00 | 40 | 1004.5 |
| 20260504234011 | 52 | 273 | 14.0 | 26.0 | 0.00 | 0.00 | 0.00 | 40 | 1004.5 |
| 20260504233504 | 52 | 309 | 12.0 | 26.0 | 0.00 | 0.00 | 0.00 | 39 | 1004.3 |
| 20260504233007 | 53 | 289 | 12.0 | 28.0 | 0.00 | 0.00 | 0.00 | 42 | 1004.3 |
| 20260504232506 | 53 | 287 | 13.0 | 28.0 | 0.00 | 0.00 | 0.00 | 41 | 1004.2 |
| 20260504232006 | 53 | 277 | 12.0 | 22.0 | 0.00 | 0.00 | 0.00 | 39 | 1004.0 |
| 20260504231508 | 53 | 249 | 11.0 | 27.0 | 0.00 | 0.00 | 0.00 | 41 | 1004.0 |
| 20260504231007 | 53 | 284 | 12.0 | 27.0 | 0.00 | 0.00 | 0.00 | 40 | 1004.0 |
| 20260504230508 | 53 | 270 | 14.0 | 27.0 | 0.00 | 0.00 | 0.00 | 42 | 1003.9 |
| 20260504230023 | 53 | 312 | 10.0 | 27.0 | 0.00 | 0.00 | 0.00 | 40 | 1003.9 |
| 20260504225504 | 53 | 314 | 15.0 | 27.0 | 0.00 | 0.00 | 0.00 | 40 | 1003.7 |
| 20260504225008 | 54 | 275 | 13.0 | 27.0 | 0.00 | 0.00 | 0.00 | 39 | 1003.7 |
| 20260504224525 | 55 | 275 | 15.0 | 27.0 | 0.00 | 0.00 | 0.00 | 40 | 1003.7 |
| 20260504224003 | 55 | 344 | 14.0 | 26.0 | 0.00 | 0.00 | 0.00 | 40 | 1003.3 |
| 20260504223507 | 55 | 271 | 10.0 | 29.0 | 0.00 | 0.00 | 0.00 | 40 | 1003.5 |
| 20260504223010 | 55 | 268 | 12.0 | 29.0 | 0.00 | 0.00 | 0.00 | 41 | 1003.4 |
| 20260504222505 | 55 | 311 | 11.0 | 25.0 | 0.00 | 0.00 | 0.00 | 40 | 1003.2 |
| 20260504222005 | 56 | 341 | 14.0 | 27.0 | 0.00 | 0.00 | 0.00 | 39 | 1003.1 |
| 20260504221516 | 57 | 265 | 12.0 | 27.0 | 0.00 | 0.00 | 0.00 | 39 | 1003.0 |
| 20260504221006 | 57 | 300 | 11.0 | 26.0 | 0.00 | 0.00 | 0.00 | 39 | 1002.9 |
| 20260504220507 | 57 | 275 | 13.0 | 30.0 | 0.00 | 0.00 | 0.00 | 39 | 1002.7 |
| 20260504220014 | 57 | 263 | 16.0 | 30.0 | 0.00 | 0.00 | 0.00 | 38 | 1002.7 |
| 20260504215508 | 57 | 323 | 14.0 | 30.0 | 0.00 | 0.00 | 0.00 | 40 | 1002.5 |
| 20260504215008 | 58 | 279 | 18.0 | 30.0 | 0.00 | 0.00 | 0.00 | 38 | 1002.6 |
| 20260504214511 | 57 | 332 | 13.0 | 27.0 | 0.00 | 0.00 | 0.00 | 38 | 1002.5 |
| 20260504214007 | 57 | 83 | 9.0 | 24.0 | 0.00 | 0.00 | 0.00 | 40 | 1002.4 |
| 20260504213505 | 57 | 292 | 12.0 | 29.0 | 0.00 | 0.00 | 0.00 | 38 | 1002.4 |
| 20260504213016 | 58 | 319 | 17.0 | 30.0 | 0.00 | 0.00 | 0.00 | 39 | 1002.3 |
| 20260504212507 | 58 | 315 | 16.0 | 30.0 | 0.00 | 0.00 | 0.00 | 38 | 1002.4 |
| 20260504212011 | 58 | 290 | 18.0 | 29.0 | 0.00 | 0.00 | 0.00 | 37 | 1002.1 |
| 20260504211518 | 58 | 306 | 12.0 | 31.0 | 0.00 | 0.00 | 0.00 | 40 | 1002.1 |
| 20260504211002 | 59 | 284 | 13.0 | 31.0 | 0.00 | 0.00 | 0.00 | 37 | 1002.1 |
| 20260504210506 | 60 | 252 | 12.0 | 29.0 | 0.00 | 0.00 | 0.00 | 40 | 1001.9 |
| 20260504210035 | 60 | 291 | 14.0 | 29.0 | 0.00 | 0.00 | 0.00 | 39 | 1002.0 |
| 20260504205509 | 60 | 279 | 13.0 | 31.0 | 0.00 | 0.00 | 0.00 | 39 | 1001.9 |
| 20260504205006 | 61 | 289 | 17.0 | 31.0 | 0.00 | 0.00 | 0.00 | 36 | 1001.9 |
| 20260504204529 | 61 | 237 | 10.0 | 29.0 | 0.00 | 0.00 | 0.00 | 39 | 1001.8 |
| 20260504204005 | 60 | 306 | 10.0 | 29.0 | 0.00 | 0.00 | 0.00 | 40 | 1001.8 |
| 20260504203503 | 60 | 303 | 12.0 | 27.0 | 0.00 | 0.00 | 0.00 | 39 | 1001.7 |
| 20260504203021 | 59 | 289 | 11.0 | 30.0 | 0.00 | 0.00 | 0.00 | 40 | 1001.7 |
| 20260504202506 | 59 | 230 | 17.0 | 30.0 | 0.00 | 0.00 | 0.00 | 38 | 1001.6 |
| 20260504202006 | 60 | 308 | 12.0 | 27.0 | 0.00 | 0.00 | 0.00 | 39 | 1001.6 |
| 20260504201512 | 59 | 259 | 16.0 | 30.0 | 0.00 | 0.00 | 0.00 | 39 | 1001.5 |
| 20260504201006 | 60 | 269 | 18.0 | 34.0 | 0.00 | 0.00 | 0.00 | 40 | 1001.7 |
| 20260504200509 | 60 | 301 | 13.0 | 34.0 | 0.00 | 0.00 | 0.00 | 39 | 1001.6 |
| 20260504200003 | 61 | 275 | 11.0 | 28.0 | 0.00 | 0.00 | 0.00 | 42 | 1001.5 |
| 20260504195502 | 61 | 286 | 15.0 | 30.0 | 0.00 | 0.00 | 0.00 | 38 | 1001.4 |
| 20260504195003 | 60 | 307 | 12.0 | 30.0 | 0.00 | 0.00 | 0.00 | 38 | 1001.4 |
| 20260504194508 | 60 | 296 | 13.0 | 30.0 | 0.00 | 0.00 | 0.00 | 39 | 1001.5 |
| 20260504194002 | 59 | 286 | 12.0 | 30.0 | 0.00 | 0.00 | 0.00 | 41 | 1001.5 |
| 20260504193504 | 59 | 257 | 15.0 | 28.0 | 0.00 | 0.00 | 0.00 | 39 | 1001.4 |
| 20260504193006 | 60 | 234 | 12.0 | 26.0 | 0.00 | 0.00 | 0.00 | 40 | 1001.2 |
| 20260504192502 | 60 | 275 | 15.0 | 25.0 | 0.00 | 0.00 | 0.00 | 40 | 1001.3 |
| 20260504192006 | 61 | 252 | 12.0 | 30.0 | 0.00 | 0.00 | 0.00 | 41 | 1001.2 |
| 20260504191522 | 60 | 273 | 17.0 | 30.0 | 0.00 | 0.00 | 0.00 | 38 | 1001.0 |
| 20260504191003 | 60 | 291 | 15.0 | 25.0 | 0.00 | 0.00 | 0.00 | 37 | 1001.0 |
| 20260504190506 | 61 | 147 | 15.0 | 25.0 | 0.00 | 0.00 | 0.00 | 37 | 1001.1 |
| 20260504190006 | 61 | 310 | 10.0 | 30.0 | 0.00 | 0.00 | 0.00 | 40 | 1001.0 |
| 20260504185502 | 60 | 249 | 13.0 | 30.0 | 0.00 | 0.00 | 0.00 | 39 | 1000.9 |
| 20260504185002 | 61 | 232 | 17.0 | 29.0 | 0.00 | 0.00 | 0.00 | 37 | 1000.8 |
| 20260504184510 | 60 | 279 | 15.0 | 29.0 | 0.00 | 0.00 | 0.00 | 38 | 1000.8 |
| 20260504184006 | 60 | 314 | 13.0 | 24.0 | 0.00 | 0.00 | 0.00 | 39 | 1000.8 |
| 20260504183506 | 58 | 262 | 12.0 | 28.0 | 0.00 | 0.00 | 0.00 | 42 | 1000.9 |
| 20260504183014 | 58 | 259 | 18.0 | 28.0 | 0.00 | 0.00 | 0.00 | 37 | 1000.8 |
| 20260504182508 | 60 | 249 | 15.0 | 26.0 | 0.00 | 0.00 | 0.00 | 36 | 1000.7 |
| 20260504182003 | 60 | 273 | 10.0 | 25.0 | 0.00 | 0.00 | 0.00 | 36 | 1000.7 |
| 20260504181510 | 61 | 284 | 12.0 | 29.0 | 0.00 | 0.00 | 0.00 | 36 | 1000.4 |
| 20260504181008 | 60 | 317 | 16.0 | 32.0 | 0.00 | 0.00 | 0.00 | 35 | 1000.3 |
| 20260504180502 | 61 | 273 | 14.0 | 32.0 | 0.00 | 0.00 | 0.00 | 35 | 1000.2 |
| 20260504180008 | 62 | 275 | 19.0 | 31.0 | 0.00 | 0.00 | 0.00 | 36 | 1000.1 |
| 20260504175503 | 63 | 312 | 15.0 | 26.0 | 0.00 | 0.00 | 0.00 | 37 | 999.9 |
| 20260504175006 | 63 | 301 | 10.0 | 25.0 | 0.00 | 0.00 | 0.00 | 41 | 999.8 |
| 20260504174514 | 62 | 310 | 11.0 | 25.0 | 0.00 | 0.00 | 0.00 | 40 | 999.9 |
| 20260504174003 | 63 | 265 | 14.0 | 27.0 | 0.00 | 0.00 | 0.00 | 37 | 999.8 |
| 20260504173504 | 62 | 266 | 11.0 | 27.0 | 0.00 | 0.00 | 0.00 | 37 | 999.7 |
| 20260504173020 | 63 | 342 | 17.0 | 26.0 | 0.00 | 0.00 | 0.00 | 38 | 999.9 |
| 20260504172503 | 63 | 243 | 13.0 | 24.0 | 0.00 | 0.00 | 0.00 | 39 | 999.7 |
| 20260504172004 | 63 | 261 | 10.0 | 29.0 | 0.00 | 0.00 | 0.00 | 40 | 999.7 |
| 20260504171520 | 62 | 225 | 13.0 | 29.0 | 0.00 | 0.00 | 0.00 | 45 | 999.6 |
| 20260504171007 | 62 | 309 | 14.0 | 33.0 | 0.00 | 0.00 | 0.00 | 43 | 999.8 |
| 20260504170505 | 62 | 254 | 18.0 | 33.0 | 0.00 | 0.00 | 0.00 | 40 | 999.7 |
| 20260504151003 | 59 | 252 | 12.0 | 22.0 | 0.00 | 0.00 | 0.00 | 45 | 999.4 |
| 20260504150504 | 59 | 301 | 10.0 | 24.0 | 0.00 | 0.00 | 0.00 | 45 | 999.3 |
| 20260504141005 | 59 | 257 | 17.0 | 34.0 | 0.00 | 0.00 | 0.00 | 40 | 998.9 |
| 20260504140502 | 59 | 292 | 13.0 | 24.0 | 0.00 | 0.00 | 0.00 | 44 | 998.9 |
| 20260504130506 | 58 | 287 | 8.0 | 14.0 | 0.00 | 0.00 | 0.00 | 51 | 997.8 |
| 20260504110506 | 55 | 247 | 7.0 | 15.0 | 0.00 | 0.00 | 0.00 | 49 | 996.8 |
| 20260504100502 | 54 | 238 | 6.0 | 13.0 | 0.00 | 0.00 | 0.00 | 51 | 997.3 |
| 20260504082005 | 53 | 232 | 5.0 | 9.0 | 0.00 | 0.00 | 0.00 | 54 | 998.8 |
| 20260504081516 | 53 | 221 | 4.0 | 9.0 | 0.00 | 0.00 | 0.00 | 54 | 998.9 |
| 20260504081009 | 53 | 237 | 4.0 | 9.0 | 0.00 | 0.00 | 0.00 | 54 | 999.1 |
| 20260504080503 | 53 | 173 | 2.0 | 9.0 | 0.00 | 0.00 | 0.00 | 53 | 999.2 |
| 20260504050508 | 52 | 227 | 2.0 | 4.0 | 0.00 | 0.00 | 0.00 | 53 | 1002.4 |
| 20260504050009 | 52 | 238 | 2.0 | 4.0 | 0.00 | 0.00 | 0.00 | 53 | 1002.5 |
| 20260504045503 | 53 | 218 | 2.0 | 5.0 | 0.00 | 0.00 | 0.00 | 52 | 1002.6 |
| 20260504045003 | 53 | 219 | 2.0 | 5.0 | 0.00 | 0.00 | 0.00 | 52 | 1002.7 |
| 20260504044520 | 53 | 185 | 2.0 | 5.0 | 0.00 | 0.00 | 0.00 | 53 | 1002.8 |
| 20260504044006 | 53 | 216 | 2.0 | 5.0 | 0.00 | 0.00 | 0.00 | 52 | 1002.9 |
| 20260504043507 | 52 | 205 | 2.0 | 5.0 | 0.00 | 0.00 | 0.00 | 52 | 1003.0 |
| 20260504043015 | 52 | 205 | 2.0 | 5.0 | 0.00 | 0.00 | 0.00 | 52 | 1003.1 |
| 20260504042507 | 53 | 214 | 2.0 | 4.0 | 0.00 | 0.00 | 0.00 | 52 | 1003.1 |
| 20260504042011 | 53 | 218 | 2.0 | 4.0 | 0.00 | 0.00 | 0.00 | 51 | 1003.2 |
| 20260504041533 | 53 | 219 | 2.0 | 5.0 | 0.00 | 0.00 | 0.00 | 51 | 1003.3 |
| 20260504041003 | 53 | 243 | 1.0 | 5.0 | 0.00 | 0.00 | 0.00 | 52 | 1003.4 |
| 20260504040509 | 53 | 229 | 2.0 | 4.0 | 0.00 | 0.00 | 0.00 | 54 | 1003.4 |
| 20260504040019 | 53 | 205 | 1.0 | 4.0 | 0.00 | 0.00 | 0.00 | 53 | 1003.5 |
| 20260504035505 | 53 | 196 | 2.0 | 5.0 | 0.00 | 0.00 | 0.00 | 54 | 1003.6 |
| 20260504035007 | 53 | 198 | 2.0 | 5.0 | 0.00 | 0.00 | 0.00 | 53 | 1003.7 |
| 20260504034518 | 53 | 196 | 2.0 | 4.0 | 0.00 | 0.00 | 0.00 | 56 | 1003.8 |
| 20260504034007 | 53 | 212 | 2.0 | 5.0 | 0.00 | 0.00 | 0.00 | 54 | 1003.8 |
| 20260504033506 | 53 | 217 | 2.0 | 5.0 | 0.00 | 0.00 | 0.00 | 53 | 1003.9 |
| 20260504033024 | 53 | 218 | 3.0 | 5.0 | 0.00 | 0.00 | 0.00 | 59 | 1004.0 |
| 20260504032509 | 53 | 221 | 1.0 | 3.0 | 0.00 | 0.00 | 0.00 | 60 | 1004.0 |
| 20260504032007 | 53 | 273 | 1.0 | 4.0 | 0.00 | 0.00 | 0.00 | 57 | 1004.0 |
| 20260504031522 | 54 | 214 | 1.0 | 4.0 | 0.00 | 0.00 | 0.00 | 52 | 1004.1 |
| 20260504031009 | 54 | 208 | 1.0 | 3.0 | 0.00 | 0.00 | 0.00 | 53 | 1004.1 |
| 20260504030509 | 54 | 221 | 2.0 | 4.0 | 0.00 | 0.00 | 0.00 | 51 | 1004.2 |
| 20260504030014 | 55 | 205 | 2.0 | 4.0 | 0.00 | 0.00 | 0.00 | 53 | 1004.3 |
| 20260504025507 | 55 | 227 | 2.0 | 4.0 | 0.00 | 0.00 | 0.00 | 51 | 1004.4 |
| 20260504025007 | 55 | 227 | 1.0 | 3.0 | 0.00 | 0.00 | 0.00 | 50 | 1004.4 |
| 20260504024515 | 56 | 215 | 1.0 | 3.0 | 0.00 | 0.00 | 0.00 | 50 | 1004.4 |
| 20260504024006 | 56 | 217 | 1.0 | 3.0 | 0.00 | 0.00 | 0.00 | 51 | 1004.5 |
| 20260504023506 | 57 | 196 | 2.0 | 3.0 | 0.00 | 0.00 | 0.00 | 47 | 1004.5 |
| 20260504023026 | 57 | 215 | 1.0 | 3.0 | 0.00 | 0.00 | 0.00 | 46 | 1004.6 |
| 20260504022504 | 58 | 218 | 1.0 | 4.0 | 0.00 | 0.00 | 0.00 | 45 | 1004.7 |
| 20260504022007 | 58 | 227 | 2.0 | 4.0 | 0.00 | 0.00 | 0.00 | 43 | 1004.7 |
| 20260504021527 | 59 | 221 | 1.0 | 4.0 | 0.00 | 0.00 | 0.00 | 40 | 1004.6 |
| 20260504021007 | 59 | 225 | 2.0 | 4.0 | 0.00 | 0.00 | 0.00 | 38 | 1004.6 |
| 20260504020503 | 60 | 226 | 2.0 | 3.0 | 0.00 | 0.00 | 0.00 | 37 | 1004.5 |
| 20260504020028 | 60 | 221 | 2.0 | 4.0 | 0.00 | 0.00 | 0.00 | 36 | 1004.5 |
| 20260504015505 | 61 | 221 | 2.0 | 4.0 | 0.00 | 0.00 | 0.00 | 36 | 1004.6 |
| 20260504015005 | 62 | 226 | 2.0 | 4.0 | 0.00 | 0.00 | 0.00 | 35 | 1004.6 |
| 20260504014522 | 62 | 229 | 2.0 | 6.0 | 0.00 | 0.00 | 0.00 | 34 | 1004.7 |
| 20260504014006 | 62 | 249 | 1.0 | 6.0 | 0.00 | 0.00 | 0.00 | 32 | 1004.8 |
| 20260504013505 | 63 | 234 | 2.0 | 5.0 | 0.00 | 0.00 | 0.00 | 33 | 1004.8 |
| 20260504013016 | 63 | 250 | 2.0 | 5.0 | 0.00 | 0.00 | 0.00 | 30 | 1004.9 |
| 20260504012505 | 63 | 247 | 2.0 | 7.0 | 0.00 | 0.00 | 0.00 | 30 | 1004.9 |
| 20260504012002 | 64 | 265 | 3.0 | 7.0 | 0.00 | 0.00 | 0.00 | 30 | 1004.9 |
| 20260504011509 | 64 | 265 | 4.0 | 7.0 | 0.00 | 0.00 | 0.00 | 30 | 1004.9 |
| 20260504011010 | 64 | 273 | 3.0 | 7.0 | 0.00 | 0.00 | 0.00 | 29 | 1004.9 |
| 20260504010502 | 65 | 265 | 2.0 | 7.0 | 0.00 | 0.00 | 0.00 | 29 | 1004.9 |
| 20260504010014 | 65 | 265 | 3.0 | 7.0 | 0.00 | 0.00 | 0.00 | 29 | 1005.0 |
| 20260504005507 | 65 | 288 | 2.0 | 10.0 | 0.00 | 0.00 | 0.00 | 28 | 1005.0 |
| 20260504005007 | 65 | 269 | 4.0 | 10.0 | 0.00 | 0.00 | 0.00 | 27 | 1005.1 |
| 20260504004511 | 66 | 281 | 3.0 | 9.0 | 0.00 | 0.00 | 0.00 | 28 | 1005.0 |
| 20260504004009 | 66 | 243 | 4.0 | 12.0 | 0.00 | 0.00 | 0.00 | 27 | 1005.0 |
| 20260504003508 | 66 | 254 | 6.0 | 14.0 | 0.00 | 0.00 | 0.00 | 26 | 1005.0 |
| 20260504003028 | 67 | 302 | 8.0 | 14.0 | 0.00 | 0.00 | 0.00 | 28 | 1005.1 |
| 20260504002503 | 67 | 238 | 4.0 | 14.0 | 0.00 | 0.00 | 0.00 | 26 | 1005.0 |
| 20260504002003 | 67 | 275 | 8.0 | 18.0 | 0.00 | 0.00 | 0.00 | 26 | 1005.1 |
| 20260504001521 | 67 | 261 | 7.0 | 18.0 | 0.00 | 0.00 | 0.00 | 27 | 1005.2 |
| 20260504001004 | 68 | 255 | 6.0 | 13.0 | 0.00 | 0.00 | 0.00 | 27 | 1005.2 |
| 20260504000507 | 68 | 267 | 7.0 | 13.0 | 0.00 | 0.00 | 0.00 | 27 | 1005.2 |
| 20260504000016 | 68 | 262 | 8.0 | 15.0 | 0.00 | 0.00 | 0.00 | 28 | 1005.1 |
| 20260503235506 | 68 | 261 | 9.0 | 17.0 | 0.00 | 0.00 | 0.00 | 25 | 1005.1 |
| 20260503235003 | 69 | 294 | 9.0 | 18.0 | 0.00 | 0.00 | 0.00 | 25 | 1005.1 |